Location: G�ndlingen
(48.0142°N, 7.6396°E)
Time: 03:03:20
(UTC+00:00)

Cosmos 1727 Rocket - Pass Details

Date: 05 July 2020
Orbit: 961 x 996 km, 82.9° (Epoch: 04 August)

Event Time Altitude Azimuth Distance (km) Brightness Sun altitude
Rises 23:36:19 0° 349° (N) 3,671 8.5 -19.3°
Reaches altitude 10° 23:38:50 10° 348° (NNW) 2,724 7.5 -19.3°
Maximum altitude 23:45:03 75° 264° (W) 1,012 4.0 -19.3°
Enters shadow 23:48:03 33° 186° (S) 1,588 4.5 -19.3°
